DW8215 Weather Reports


Display with metric or nautical units.
time (UTC)temp
F
wind
direction
speed
MPH
gust
MPH
rain 1hr
in
rain 24hr
in
rain mn
in
humidity
%
barometer
mb
20260905200022 72 24 3.0 8.0 0.00 0.00 0.00 82 1018.7
20260905194517 73 349 2.0 5.0 0.00 0.00 0.00 80 1018.7
20260905193013 73 10 3.0 5.0 0.00 0.00 0.00 81 1018.9
20260905191516 73 355 2.0 6.0 0.00 0.00 0.00 82 1019.1
20260905190012 72 22 0.0 5.0 0.00 0.00 0.00 84 1019.1
20260905184524 72 16 4.0 9.0 0.00 0.00 0.00 82 1019.1
20260905183011 72 40 1.0 6.0 0.00 0.00 0.00 84 1019.3
20260905181511 72 5 2.0 5.0 0.00 0.00 0.00 84 1019.4
20260905180009 71 14 2.0 6.0 0.00 0.00 0.00 84 1019.2
20260905174508 72 339 3.0 6.0 0.00 0.00 0.00 84 1019.4
20260905173008 73 19 1.0 4.0 0.00 0.00 0.00 85 1019.6
20260905171509 73 360 0.0 4.0 0.00 0.00 0.00 86 1019.8
20260905170003 72 5 0.0 2.0 0.00 0.00 0.00 87 1020.0
20260905164502 72 346 0.0 3.0 0.00 0.00 0.00 86 1019.7
20260905163108 71 11 0.0 0.0 0.00 0.00 0.00 89 1019.8
20260905161606 69 131 1.0 5.0 0.00 0.00 0.00 90 1020.0
20260905160052 68 138 2.0 4.0 0.00 0.00 0.00 91 1020.1
20260905154548 67 146 2.0 6.0 0.00 0.00 0.00 93 1020.0
20260905153044 65 165 0.0 4.0 0.00 0.00 0.00 96 1020.1
20260905151543 64 154 0.0 4.0 0.00 0.00 0.00 98 1020.1
20260905150040 63 121 0.0 5.0 0.00 0.00 0.00 99 1020.2
20260905144539 63 150 2.0 6.0 0.00 0.00 0.00 100 1020.1
20260905143037 62 140 2.0 5.0 0.00 0.00 0.00 100 1020.3
20260905141535 62 121 0.0 3.0 0.00 0.00 0.00 100 1020.3
20260905140035 61 317 0.0 0.0 0.00 0.00 0.00 100 1020.2
20260905134530 60 170 0.0 0.0 0.00 0.00 0.00 100 1019.9
20260905133035 60 105 0.0 0.0 0.00 0.00 0.00 100 1019.6
20260905131529 59 128 0.0 0.0 0.00 0.00 0.00 100 1019.6
20260905130025 59 37 0.0 0.0 0.00 0.00 0.00 100 1019.4
20260905124524 59 84 0.0 0.0 0.00 0.01 0.00 100 1019.1
20260905123022 59 140 0.0 0.0 0.00 0.01 0.00 100 1018.9
20260905121521 59 164 0.0 3.0 0.00 0.01 0.00 100 1018.9
20260905120019 59 128 1.0 4.0 0.00 0.01 0.00 100 1018.6
20260905114518 59 142 2.0 5.0 0.00 0.10 0.00 100 1018.5
20260905113017 59 355 0.0 0.0 0.00 0.10 0.00 100 1018.4
20260905111519 58 355 0.0 0.0 0.00 0.10 0.00 100 1018.5
20260905110015 58 355 0.0 0.0 0.00 0.10 0.00 100 1018.4
20260905104513 58 355 0.0 0.0 0.00 0.34 0.00 100 1018.3
20260905103015 58 355 0.0 0.0 0.00 0.34 0.00 99 1018.3
20260905101512 58 355 0.0 0.0 0.00 0.34 0.00 100 1018.3
20260905100014 58 355 0.0 0.0 0.00 0.34 0.00 100 1018.3
20260905094510 58 355 0.0 0.0 0.00 0.34 0.00 100 1018.2
20260905093009 58 355 0.0 0.0 0.00 0.34 0.00 100 1018.0
20260905091511 58 355 0.0 0.0 0.00 0.34 0.00 100 1018.1
20260905090010 58 355 0.0 0.0 0.00 0.34 0.00 100 1018.1
20260905084507 58 355 0.0 0.0 0.00 0.34 0.00 99 1018.2
20260905083006 58 355 0.0 0.0 0.00 0.34 0.00 100 1018.1
20260905081505 58 355 0.0 0.0 0.00 0.34 0.00 99 1018.1
20260905080005 58 355 0.0 0.0 0.00 0.34 0.00 99 1018.1
20260905074504 58 355 0.0 0.0 0.00 0.36 0.00 99 1018.1
20260905073007 58 355 0.0 0.0 0.00 0.36 0.00 99 1018.2
20260905071501 59 355 0.0 0.0 0.00 0.36 0.00 99 1018.1
20260905070100 59 355 0.0 0.0 0.00 0.36 0.00 99 1017.9
20260905064616 60 355 0.0 0.0 0.00 0.65 0.00 99 1017.7
20260905063056 60 355 0.0 0.0 0.00 0.65 0.00 99 1017.7
20260905061604 60 355 0.0 0.0 0.00 0.65 0.00 99 1017.7
20260905060055 60 355 0.0 0.0 0.00 0.65 0.00 99 1017.8
20260905054656 60 355 0.0 0.0 0.00 1.11 0.00 99 1017.8
20260905053053 60 355 0.0 0.0 0.00 1.11 0.00 99 1017.7
20260905051553 60 355 0.0 0.0 0.00 1.11 0.00 99 1017.6
20260905050050 60 355 0.0 0.0 0.00 1.11 0.00 99 1017.5
20260905044602 61 355 0.0 0.0 0.00 1.12 0.00 99 1017.4
20260905043047 61 355 0.0 0.0 0.00 1.12 0.00 98 1017.4
20260905041545 61 355 0.0 0.0 0.00 1.12 0.00 98 1017.3
20260905040042 62 355 0.0 0.0 0.00 1.12 0.00 98 1017.4
20260905034545 62 355 0.0 0.0 0.00 1.12 1.12 98 1017.4
20260905033041 62 355 0.0 0.0 0.00 1.12 1.12 98 1017.1
20260905031545 62 355 0.0 0.0 0.00 1.12 1.12 98 1017.1
20260905030039 63 355 0.0 0.0 0.00 1.12 1.12 98 1017.1
20260905024552 63 355 0.0 0.0 0.00 1.12 1.12 98 1017.1
20260905023038 63 355 0.0 0.0 0.00 1.12 1.12 98 1017.1
20260905021537 64 355 0.0 0.0 0.00 1.12 1.12 98 1017.0
20260905020039 64 355 0.0 1.0 0.00 1.12 1.12 97 1017.0
20260905014534 64 5 0.0 2.0 0.00 1.12 1.12 97 1016.8
20260905013033 64 355 1.0 3.0 0.00 1.12 1.12 97 1016.6
20260905011532 65 5 0.0 3.0 0.00 1.12 1.12 97 1016.5
20260905010038 65 355 0.0 3.0 0.00 1.12 1.12 97 1016.4
20260905004533 65 355 0.0 2.0 0.00 1.12 1.12 97 1016.3
20260905003031 65 360 0.0 2.0 0.00 1.12 1.12 96 1016.2
20260905001531 65 360 0.0 3.0 0.00 1.12 1.12 96 1016.3
20260905000034 65 5 1.0 3.0 0.00 1.12 1.12 96 1016.3
20260904234529 65 13 0.0 3.0 0.00 1.12 1.12 96 1016.2
20260904233029 65 355 2.0 4.0 0.00 1.12 1.12 96 1016.1
20260904231528 65 360 0.0 3.0 0.00 1.12 1.12 96 1016.2
20260904230032 65 9 0.0 4.0 0.00 1.12 1.12 95 1016.2
20260904224527 66 5 2.0 9.0 0.00 1.12 1.12 95 1016.2
20260904223028 66 11 2.0 5.0 0.00 1.12 1.12 95 1015.9
20260904221530 66 342 2.0 4.0 0.00 1.12 1.12 96 1015.7
20260904220025 66 355 2.0 6.0 0.00 1.12 1.12 96 1015.6
20260904214525 66 355 1.0 5.0 0.00 1.12 1.12 95 1015.5
20260904213024 66 355 2.0 4.0 0.00 1.12 1.12 95 1015.4
20260904211523 67 5 1.0 8.0 0.00 1.12 1.12 96 1015.4
20260904210027 67 9 3.0 5.0 0.00 1.12 1.12 95 1015.4
20260904204522 67 360 1.0 4.0 0.00 1.12 1.12 95 1015.3
20260904203023 68 24 1.0 4.0 0.00 1.12 1.12 95 1015.4
20260904201521 67 5 0.0 4.0 0.00 1.12 1.12 96 1015.3